Volver al catálogo

STARLINK-1983

ActivoComunicacionesVLEO
NORAD 47630·PAYLOAD·🇺🇸 United States

Lanzado Feb 16, 2021 desde Cape Canaveral Space Force Station

Loading…

Próximos Pases (próximas 24 horas)

TLE

ActualizadoSource: CelesTrak SupGP

Época: Sep 15, 2026, 02:20 UTC

1 47630C 21012L   26258.09770833 -.00018224  00000+0 -54475-3 0  2580
2 47630  53.1571 247.8089 0004068  62.4970 330.8560 15.34024866    13

Sigue STARLINK-1983 en tiempo real con AllMySat

Download on the App Store